[[{"header":{"parameterUnit":"m.s-1","parameterCategory":1,"la1":30.2991,"la2":30.254,"lo1":-89.0895,"lo2":-89.0444,"dy":0.0017,"dx":0.0017,"nx":28,"ny":28,"refTime":"2024-02-28T09:00:00:Z","depth":0,"parameterNumber":2,"parameterNumberName":"U-component_of_WINDS"},"data":[0,0,0,0,0,0,0,0,0,0,0,0,0,0,0,0,0,0,0,0,0,0,0,0,0,0,0,0,0,0,0,0,0,0,0,0,0,0,0,0,0,0,0,0,0,0,0,0,0,0,0,0,0,0,0,0,0,0,0.6606,0.6607,0,0.666,0.6661,0.6661,0.6705,0.6705,0.6705,0.6706,0.6761,0.6762,0.6763,0,0,0,0,0,0,0,0,0,0,0,0,0,0.6543,0.6543,0.6606,0.6607,0.6607,0.666,0.6661,0.6661,0.6705,0.6705,0.6706,0.6706,0.6761,0.6762,0.6763,0,0,0,0,0,0,0,0,0,0,0,0,0,0.6581,0.6544,0.6606,0.6635,0.6638,0.666,0.6661,0.6662,0.6704,0.6705,0.6706,0.6706,0.676,0.6762,0.6764,0.676,0,0,0.6769,0.6769,0,0,0,0,0,0,0,0,0.6578,0.6583,0.663,0.6633,0.6637,0.6676,0.6659,0.6695,0.6704,0.6679,0.6706,0.6707,0.6732,0.6736,0.6745,0.6763,0.6765,0.6769,0.677,0.677,0.6771,0,0,0,0,0,0,0,0.6576,0.6581,0.6627,0.6631,0.6635,0.6646,0.6653,0.6666,0.6702,0.6682,0.6685,0.6691,0.6734,0.6743,0.6747,0.6766,0.6769,0.677,0.6771,0.6772,0.6788,0.6788,0,0,0,0,0,0,0.6568,0.6578,0.6626,0.6629,0.6609,0.6647,0.6654,0.6663,0.6701,0.6708,0.669,0.6692,0.674,0.6745,0.6749,0.675,0.677,0.6772,0.6773,0.6789,0.6788,0.6788,0,0,0,0,0,0,0.6567,0.6572,0.6623,0.6605,0.6612,0.6647,0.6657,0.6664,0.6673,0.6708,0.6715,0.6693,0.6741,0.6747,0.6758,0.6753,0.6773,0.6774,0.6789,0.6789,0.6788,0.6751,0,0,0,0,0,0,0.6565,0.6571,0.657,0.6604,0.6613,0.6631,0.6657,0.6664,0.6675,0.6679,0.6712,0.6718,0.6742,0.6756,0.676,0.6755,0.6775,0.679,0.6789,0.6788,0.6753,0.675,0.6746,0,0,0,0,0,0.6562,0.6556,0.6569,0.6575,0.6611,0.663,0.6635,0.6663,0.6675,0.6674,0.6697,0.6717,0.6752,0.6756,0.6761,0.6757,0.6791,0.6789,0.6788,0.6755,0.675,0.6746,0,0,0,0,0,0,0.6519,0.6561,0.6576,0.6581,0.6602,0.6638,0.6638,0.6657,0.6675,0.6677,0.6711,0.6718,0.6727,0.6743,0.6746,0.6758,0.6774,0.6774,0.6747,0.6743,0.674,0.6736,0.6777,0,0,0,0,0,0.6511,0.6522,0.6558,0.6559,0.6569,0.6601,0.6611,0.663,0.6653,0.6662,0.6686,0.6708,0.6725,0.6735,0.6751,0.6756,0.6765,0.6756,0.6752,0.6749,0.6749,0.6756,0.6753,0.6784,0.6784,0.6784,0,0,0.6492,0.6517,0.6522,0.6551,0.657,0.6582,0.6608,0.6619,0.663,0.6664,0.6677,0.6696,0.6723,0.6731,0.6736,0.6745,0.6743,0.6748,0.6745,0.6747,0.6755,0.6752,0.6749,0.6783,0.6783,0.6783,0,0,0.6466,0.6484,0.6489,0.6508,0.6536,0.6558,0.6559,0.6592,0.6606,0.662,0.6647,0.666,0.6687,0.6706,0.6719,0.6703,0.6723,0.6708,0.669,0.6696,0.6694,0.6692,0.6688,0.6687,0.6707,0.6707,0.6707,0,0.644,0.6459,0.6489,0.6499,0.6513,0.6545,0.6551,0.6568,0.66,0.6609,0.6618,0.6655,0.6675,0.6691,0.6687,0.6696,0.67,0.6704,0.6691,0.669,0.6688,0.6686,0.6684,0.6705,0.6705,0.6705,0.6706,0,0.6427,0.644,0.6441,0.6472,0.6485,0.6493,0.6525,0.6535,0.6555,0.6576,0.6592,0.6617,0.6641,0.6646,0.6664,0.6665,0.667,0.6685,0.6702,0.6683,0.6681,0.668,0.6702,0.6703,0.6704,0.6704,0,0,0.6375,0.6424,0.6424,0.644,0.6475,0.6486,0.6496,0.6521,0.653,0.6551,0.6563,0.6586,0.6601,0.6616,0.6637,0.6642,0.6631,0.6657,0.6658,0.6653,0.6637,0.6627,0.6625,0.6645,0.6645,0.6644,0.6636,0,0.6356,0.6376,0.6404,0.6416,0.643,0.6463,0.6472,0.6496,0.6516,0.6532,0.6556,0.6573,0.659,0.66,0.6606,0.6631,0.6629,0.6632,0.6657,0.6658,0.6651,0.6624,0.6612,0.6602,0.6635,0.6635,0.6635,0,0.6336,0.6357,0.637,0.6407,0.6414,0.6422,0.6448,0.6462,0.649,0.6505,0.6523,0.6546,0.6561,0.6575,0.6598,0.6599,0.6611,0.6625,0.6626,0.663,0.6646,0.6629,0.66,0.6599,0.6633,0.6633,0.6634,0,0.6299,0.6331,0.6344,0.6356,0.6398,0.6404,0.6422,0.645,0.6464,0.6487,0.6496,0.652,0.6534,0.6552,0.6582,0.659,0.6602,0.6618,0.6617,0.6616,0.6618,0.6618,0.6592,0.6623,0.6623,0.6623,0.6623,0,0.6276,0.6284,0.6329,0.6337,0.6347,0.638,0.6389,0.641,0.6436,0.645,0.6479,0.6491,0.6529,0.6546,0.657,0.6586,0.6591,0.6605,0.6612,0.6604,0.6602,0.6613,0.6615,0.6623,0.6623,0.6623,0.6623,0,0.6237,0.6267,0.6284,0.6323,0.6333,0.6339,0.6373,0.6383,0.6407,0.6424,0.643,0.6467,0.6489,0.6521,0.6552,0.6568,0.6582,0.6591,0.6572,0.6577,0.6574,0.6574,0.6555,0.6555,0.6584,0.6584,0.6584,0,0.6222,0.6228,0.6269,0.628,0.6297,0.6315,0.633,0.6363,0.6377,0.6411,0.6417,0.6442,0.6464,0.6498,0.6528,0.6554,0.6565,0.6556,0.6569,0.6561,0.6567,0.6567,0.6569,0.6553,0.6553,0.6553,0.6552,0,0.6191,0.6206,0.6226,0.6252,0.6268,0.629,0.6313,0.6321,0.636,0.6375,0.6398,0.6415,0.6449,0.6474,0.6503,0.6523,0.6545,0.6548,0.655,0.6542,0.6532,0.6539,0.6566,0.6549,0.6549,0.6549,0.6549,0.655,0.6165,0.6174,0.6204,0.6226,0.6247,0.6269,0.6281,0.6306,0.6326,0.6356,0.6375,0.6398,0.6428,0.647,0.6489,0.6509,0.6517,0.6519,0.6519,0.6519,0.6518,0.6528,0.6514,0.6514,0.6514,0.6515,0.6515,0,0.6138,0.616,0.6179,0.6211,0.6229,0.6248,0.6275,0.6289,0.6309,0.6335,0.6357,0.6385,0.641,0.6443,0.647,0.648,0.6491,0.6486,0.6487,0.6491,0.6507,0.6504,0.6477,0.6477,0.6477,0.6477,0.6477,0.6477,0.6126,0.6143,0.6162,0.619,0.6211,0.6234,0.6249,0.627,0.6291,0.6321,0.6342,0.6364,0.6393,0.6424,0.6448,0.6457,0.6467,0.646,0.6472,0.6486,0.649,0.6493,0.6491,0.6461,0.6461,0.6455,0.6454,0.6454]},{"header":{"parameterUnit":"m.s-1","parameterCategory":1,"la1":30.2991,"la2":30.254,"lo1":-89.0895,"lo2":-89.0444,"dy":0.0017,"dx":0.0017,"nx":28,"ny":28,"refTime":"2024-02-28T09:00:00:Z","depth":0,"parameterNumber":3,"parameterNumberName":"V-component_of_WINDS"},"data":[0,0,0,0,0,0,0,0,0,0,0,0,0,0,0,0,0,0,0,0,0,0,0,0,0,0,0,0,0,0,0,0,0,0,0,0,0,0,0,0,0,0,0,0,0,0,0,0,0,0,0,0,0,0,0,0,0,0,2.5981,2.5983,0,2.6121,2.6123,2.6124,2.6176,2.6175,2.6175,2.6175,2.6319,2.6323,2.6327,0,0,0,0,0,0,0,0,0,0,0,0,0,2.5759,2.5763,2.5981,2.5983,2.5985,2.6121,2.6123,2.6125,2.6176,2.6175,2.6175,2.6174,2.6317,2.6322,2.6327,0,0,0,0,0,0,0,0,0,0,0,0,0,2.5873,2.5764,2.5981,2.6027,2.6032,2.6121,2.6123,2.6125,2.6176,2.6175,2.6175,2.6174,2.6316,2.6322,2.6328,2.6382,0,0,2.6348,2.635,0,0,0,0,0,0,0,0,2.5866,2.5881,2.6018,2.6024,2.603,2.613,2.6098,2.6211,2.6176,2.6121,2.6175,2.6174,2.6257,2.6268,2.6296,2.6388,2.6394,2.6348,2.6352,2.6355,2.6357,0,0,0,0,0,0,0,2.5858,2.5875,2.6037,2.602,2.6027,2.604,2.6056,2.6119,2.6191,2.6126,2.613,2.6146,2.626,2.6289,2.6299,2.6397,2.6348,2.6354,2.6358,2.636,2.6541,2.6542,0,0,0,0,0,0,2.5843,2.5868,2.6032,2.6041,2.5945,2.6045,2.6062,2.6099,2.6191,2.6204,2.6147,2.6148,2.6279,2.6292,2.6305,2.6375,2.6355,2.6361,2.6365,2.654,2.6542,2.6543,0,0,0,0,0,0,2.5838,2.5857,2.6026,2.5956,2.5978,2.605,2.609,2.6102,2.6132,2.6206,2.6219,2.6164,2.6279,2.6296,2.6362,2.638,2.6364,2.637,2.6539,2.6541,2.6542,2.6514,0,0,0,0,0,0,2.5831,2.5855,2.5876,2.5956,2.5982,2.6081,2.6091,2.6105,2.6143,2.6146,2.6226,2.6238,2.6279,2.6352,2.6369,2.6389,2.6375,2.6538,2.654,2.6542,2.6513,2.6514,2.6514,0,0,0,0,0,2.5823,2.5862,2.5876,2.5896,2.6009,2.6082,2.6097,2.6144,2.6144,2.6166,2.6213,2.6236,2.6375,2.6359,2.6378,2.64,2.6537,2.6539,2.6542,2.6513,2.6514,2.6514,0,0,0,0,0,0,2.5782,2.5873,2.589,2.5956,2.6011,2.6091,2.612,2.6143,2.6199,2.62,2.6256,2.6273,2.6336,2.6374,2.6354,2.6457,2.6458,2.6464,2.643,2.6431,2.6431,2.6421,2.638,0,0,0,0,0,2.578,2.5832,2.5909,2.5959,2.5986,2.6048,2.6081,2.6113,2.6172,2.6195,2.6248,2.6305,2.6362,2.6398,2.6455,2.6519,2.6537,2.6543,2.6544,2.6544,2.6549,2.6587,2.659,2.655,2.655,2.655,0,0,2.5778,2.5834,2.5863,2.5952,2.5999,2.6051,2.6067,2.6122,2.6162,2.6204,2.627,2.6311,2.6378,2.6444,2.6476,2.6478,2.6564,2.6546,2.6546,2.6551,2.6589,2.6593,2.6596,2.6551,2.6551,2.6551,0,0,2.5801,2.5848,2.5896,2.5942,2.6012,2.6053,2.6064,2.6141,2.6169,2.6237,2.627,2.6318,2.6414,2.6461,2.6498,2.6538,2.6561,2.6555,2.6559,2.6595,2.6598,2.6601,2.6617,2.6622,2.6559,2.6559,2.6559,0,2.5789,2.5869,2.5917,2.5971,2.6009,2.605,2.6099,2.6142,2.6226,2.6252,2.6254,2.6376,2.6424,2.6502,2.6512,2.654,2.6555,2.6547,2.6594,2.6597,2.6601,2.6617,2.6622,2.6558,2.6558,2.6559,2.6559,0,2.5852,2.5907,2.5937,2.6018,2.606,2.6111,2.6168,2.6204,2.6232,2.6273,2.6341,2.64,2.647,2.649,2.6518,2.6573,2.6572,2.6583,2.6585,2.6603,2.6619,2.6625,2.6557,2.6557,2.6557,2.6558,0,0,2.5853,2.596,2.5971,2.6009,2.6089,2.6133,2.6185,2.6253,2.6284,2.6341,2.6388,2.6468,2.6479,2.652,2.6553,2.6585,2.6615,2.6592,2.6594,2.6595,2.6681,2.6673,2.6679,2.663,2.6631,2.6632,2.6675,0,2.5888,2.5984,2.6029,2.6106,2.6159,2.6198,2.6244,2.6298,2.6338,2.6388,2.6432,2.6489,2.6498,2.6523,2.6556,2.6604,2.6633,2.6601,2.6675,2.6677,2.6658,2.6688,2.668,2.6718,2.6682,2.6683,2.6684,0,2.5941,2.5998,2.608,2.6155,2.6179,2.6219,2.6286,2.6333,2.6396,2.6422,2.6468,2.65,2.6558,2.6555,2.6636,2.6614,2.6646,2.6674,2.6677,2.6687,2.6682,2.67,2.6731,2.6737,2.6694,2.6693,2.6692,0,2.5935,2.6033,2.6095,2.6126,2.6214,2.6242,2.628,2.6342,2.638,2.6438,2.6464,2.6527,2.6563,2.6611,2.666,2.6653,2.6737,2.6737,2.6761,2.676,2.6779,2.6777,2.6817,2.6797,2.6796,2.6796,2.6796,0,2.597,2.6019,2.6094,2.6132,2.6189,2.624,2.6294,2.6335,2.639,2.6438,2.6475,2.6518,2.6579,2.663,2.6668,2.673,2.6745,2.6769,2.6779,2.6767,2.6764,2.679,2.679,2.6798,2.6798,2.6797,2.6797,0,2.5974,2.6026,2.6097,2.6174,2.6195,2.6233,2.63,2.6339,2.638,2.644,2.6457,2.6522,2.6585,2.6637,2.6719,2.6745,2.681,2.682,2.6789,2.6794,2.6816,2.6814,2.6876,2.6887,2.6857,2.6857,2.6857,0,2.5994,2.6033,2.6115,2.6149,2.6187,2.6242,2.6281,2.6333,2.6372,2.6447,2.6477,2.6542,2.6597,2.6695,2.675,2.6813,2.6827,2.6844,2.6837,2.6824,2.6829,2.6827,2.6832,2.6845,2.6845,2.6845,2.6845,0,2.6023,2.6047,2.6102,2.6167,2.6213,2.6266,2.632,2.6346,2.6408,2.6451,2.6515,2.6558,2.6642,2.6707,2.6776,2.6816,2.6841,2.6847,2.6856,2.6845,2.6826,2.6838,2.6792,2.6846,2.6846,2.6846,2.6846,2.6846,2.6037,2.6074,2.6138,2.6198,2.6244,2.6294,2.6335,2.6382,2.6436,2.6509,2.6536,2.6602,2.6665,2.676,2.68,2.6853,2.6856,2.6869,2.6873,2.6876,2.6875,2.6816,2.6866,2.6866,2.6866,2.6866,2.6866,0,2.607,2.6113,2.6168,2.6243,2.6291,2.631,2.6371,2.641,2.6468,2.6524,2.6577,2.6652,2.6715,2.6774,2.6841,2.6872,2.6885,2.6887,2.6887,2.6896,2.6867,2.6853,2.6875,2.6875,2.6875,2.6875,2.6875,2.6875,2.6093,2.6157,2.6188,2.6275,2.6318,2.6384,2.6417,2.6464,2.6509,2.659,2.6643,2.6681,2.6739,2.6809,2.6868,2.6884,2.6908,2.6907,2.6926,2.6899,2.6897,2.6896,2.6883,2.6911,2.6911,2.6951,2.6951,2.6951]}]]